Dewpoint
62 66 66 67 67 67 66 66 66 66 66 66 66 66 66 65 64 65 68 68 68 69 69 68 68 67 67 67 67 66 66 66 67
63 65 65 66 67 66 66 66 66 66 66 64 64 65 65 65 65 67 67 67 68 68 68 68 67 67 66 67 66 65 64 65 65
64 64 64 65 66 67 66 66 66 65 65 64 63 64 64 65 65 66 67 67 67 66 67 67 67 67 66 65 64 64 65 65 64
64 65 64 64 65 66 66 66 65 64 64 64 62 63 63 63 63 64 65 66 66 67 67 67 67 67 66 66 66 65 65 64 65
64 64 64 64 64 64 65 64 63 62 62 61 61 61 62 63 64 65 66 65 65 66 67 67 66 66 67 67 66 66 66 65 64
61 62 62 63 63 62 63 62 61 60 59 59 60 59 60 62 63 64 66 65 65 65 66 66 66 66 67 67 67 66 65 64 63
60 61 60 60 60 60 59 59 58 58 57 57 57 57 57 58 60 63 65 65 65 65 64 64 64 66 66 67 66 65 65 64 64
57 58 59 60 57 57 55 55 55 54 56 56 56 56 57 56 56 61 63 62 63 65 65 66 65 64 64 65 65 64 64 63 63
54 55 56 58 58 55 56 54 53 53 52 53 54 55 56 56 56 56 61 62 60 61 63 64 64 64 63 63 64 64 64 63 63
51 52 52 52 53 55 54 53 53 52 52 51 51 52 54 56 56 56 56 60 60 60 60 61 63 63 64 64 63 63 63 63 63
47 48 49 48 48 50 53 52 51 50 50 50 50 49 51 52 54 56 56 56 58 58 59 59 59 60 61 61 60 61 63 63 63
44 44 45 47 46 48 51 52 52 50 50 48 48 49 49 49 51 52 53 55 54 55 55 57 57 57 57 58 58 57 57 58 59
41 42 43 45 45 46 47 51 50 48 47 45 48 49 48 48 48 51 51 51 53 54 53 53 54 55 56 56 56 56 56 55 56
36 37 38 43 43 42 44 46 46 46 46 45 47 48 47 47 48 50 50 50 50 50 53 52 53 53 54 54 54 54 54 55 55
32 33 35 38 39 39 41 43 45 44 44 45 46 47 47 47 49 47 47 47 48 48 48 49 53 52 51 51 53 53 54 53 53
25 30 32 35 36 36 37 40 43 42 42 43 45 46 46 47 47 47 46 47 47 48 48 48 49 48 46 48 49 51 52 53 54
20 25 29 31 33 33 35 37 39 41 41 39 42 44 44 45 46 45 41 42 42 43 44 47 47 45 42 42 43 46 48 51 51
15 19 25 28 30 31 32 35 34 37 38 38 40 40 40 40 45 40 39 39 39 39 43 43 42 41 37 37 38 41 44 46 48
12 12 17 22 25 27 28 29 31 33 34 37 36 38 36 36 39 39 36 37 36 35 42 40 37 36 35 33 33 35 39 42 44
6 9 11 15 17 19 23 25 24 25 30 31 32 33 34 32 34 35 33 33 34 31 40 37 34 31 30 30 26 27 32 36 39
Wind_Speed
12 18 19 19 19 21 19 19 19 18 16 17 19 18 16 14 15 16 17 13 18 19 19 18 19 18 18 17 19 19 19 19 18
13 18 18 18 19 19 20 20 19 20 20 20 22 19 17 15 13 15 13 14 17 18 19 17 17 18 17 18 20 19 17 18 17
18 18 18 17 19 19 20 20 19 20 19 18 21 23 21 17 17 16 13 15 17 17 17 17 16 17 17 17 17 16 17 16 16
20 20 21 24 23 23 22 21 22 20 17 17 16 24 25 18 17 15 10 11 16 16 17 16 14 15 16 16 15 14 15 16 15
19 17 18 20 19 18 17 18 19 15 17 21 18 20 21 18 17 14 12 9 11 15 16 17 14 12 13 14 15 16 16 14 14
15 16 16 16 16 16 15 16 14 12 14 21 17 20 16 16 15 14 18 17 11 12 14 12 10 9 11 14 16 17 15 14 13
12 13 14 12 10 15 19 19 16 12 13 14 15 15 15 14 14 16 22 20 20 16 13 11 8 10 12 16 16 17 15 14 13
11 12 13 14 15 10 14 13 12 13 13 13 15 14 13 13 14 18 23 24 24 21 18 11 9 12 12 14 16 16 15 13 12
13 15 15 12 8 12 9 12 11 13 14 13 15 16 15 12 11 16 21 21 23 23 25 22 18 18 17 14 15 15 15 13 12
13 12 11 12 13 13 14 13 10 9 9 12 13 14 14 14 11 11 19 19 20 22 23 22 23 25 23 20 19 16 13 11 11
12 11 11 13 12 12 10 9 10 9 11 11 12 13 13 12 12 11 12 17 19 20 21 21 21 22 22 21 23 25 21 15 11
15 14 13 10 11 13 11 11 4 5 7 11 11 9 12 11 11 11 11 10 17 18 21 21 21 21 21 22 20 21 22 19 19
15 14 15 14 12 12 11 11 11 12 12 8 7 11 10 9 10 11 11 12 9 13 20 21 21 22 22 22 22 21 20 21 20
15 15 16 15 15 15 14 13 12 13 14 10 8 10 11 12 10 13 12 13 15 11 16 20 21 25 25 24 23 22 22 22 22
15 15 17 16 14 16 16 12 13 13 12 8 7 8 9 12 14 13 14 14 15 15 16 15 20 27 28 27 25 24 23 22 21
18 14 16 15 16 16 16 11 12 16 17 5 6 10 12 13 12 14 15 13 15 14 15 15 17 18 27 29 28 26 25 24 24
16 16 15 16 14 17 18 17 10 12 16 7 3 6 5 7 11 15 16 17 16 18 17 18 19 18 17 24 28 26 24 24 23
16 17 15 15 15 15 15 15 16 11 12 17 7 4 3 3 7 15 16 17 16 17 15 19 19 18 19 20 23 27 25 24 23
16 17 17 17 15 17 16 16 14 13 14 6 14 12 10 4 2 5 14 13 16 16 12 15 18 18 16 22 25 25 24 25 24
17 17 17 17 16 16 17 17 17 16 12 13 6 6 9 8 6 4 11 10 12 12 9 13 15 17 17 17 21 24 24 26 24
Wind_Direction
62 65 61 55 52 63 62 62 55 52 48 48 35 32 45 73 76 76 73 78 84 84 84 86 86 87 86 88 84 76 70 67 62
68 67 63 62 62 64 68 58 60 54 46 42 42 40 55 65 80 75 77 81 82 82 84 83 84 82 77 72 74 73 71 71 69
53 56 60 63 71 68 66 69 59 55 44 37 43 46 52 63 63 59 57 78 82 83 85 86 84 84 80 77 77 74 72 68 66
59 45 45 47 46 49 49 59 54 44 29 22 39 64 51 51 50 46 50 78 88 82 83 82 83 87 89 88 85 80 78 67 63
60 51 48 56 57 61 59 59 61 50 30 19 52 72 57 49 41 29 42 71 97 98 88 75 68 83 93 94 93 80 73 72 69
74 71 63 56 64 63 62 61 47 42 23 19 45 67 57 53 43 29 48 59 73 84 93 84 69 65 84 90 86 83 76 70 66
89 79 71 60 56 59 52 52 42 41 34 18 27 77 70 55 47 33 49 59 62 74 80 77 65 70 82 86 81 79 72 68 63
47 48 37 32 41 44 64 57 52 45 45 36 32 46 75 68 51 35 42 53 56 60 65 77 65 57 74 81 81 78 71 65 62
41 41 27 25 34 39 75 82 67 66 57 54 51 48 52 65 64 48 42 50 57 55 53 60 58 57 56 57 77 76 71 63 57
49 50 32 23 22 25 30 44 60 56 73 74 67 60 61 58 60 60 55 49 55 58 55 55 61 60 61 56 52 54 60 56 51
36 49 50 37 25 12 31 49 59 51 50 56 62 63 60 60 57 61 59 59 57 59 57 55 55 60 58 54 50 47 48 42 33
36 38 31 37 30 22 27 13 43 49 48 54 55 64 68 54 65 53 52 60 63 64 63 58 56 55 55 57 51 41 41 38 36
31 34 23 20 30 21 14 21 37 36 29 31 49 66 56 69 67 71 55 47 62 68 71 63 59 56 55 52 47 44 36 32 29
28 26 13 21 30 23 14 23 52 34 7 355 56 80 70 58 73 67 63 53 53 55 78 72 68 61 52 47 43 39 36 33 30
22 27 20 28 30 23 9 14 54 37 1 338 28 86 87 76 80 78 77 70 60 54 58 60 74 64 53 43 39 35 34 31 29
26 30 28 22 37 28 18 2 37 31 3 26 31 99 85 85 78 66 52 47 43 55 61 59 63 61 51 41 36 32 29 27 26
36 32 31 30 34 32 27 24 23 44 30 20 296 151 88 70 104 79 58 48 35 32 30 58 72 64 54 39 32 26 23 22 18
35 38 39 38 36 32 29 24 28 37 34 39 36 34 72 353 89 65 53 49 34 26 32 54 58 61 56 38 25 23 19 16 12
37 41 41 40 39 36 33 25 28 36 38 23 17 60 53 44 147 81 47 33 29 19 51 55 53 49 51 39 22 18 15 13 10
41 42 42 40 38 33 35 33 32 33 46 53 24 18 38 25 27 326 358 10 4 9 56 62 59 46 39 34 15 12 12 10 8